sat.trackr.live / text

‹ back to catalog

2024-110C

NORAD 60014 · 2024-110C

PAYLOAD ACTIVE UNKNOWN

§ Identity

Operator
Country
PRC
Launch date
2024-06-06
Launch site
JSC
Launch vehicle
Mass (kg)
RCS (m²)

External: N2YO · Heavens-Above · Gunter

§ Orbital elements

Epoch: 2026-08-24T07:03:18.574272Z

Period
96.10 min
Inclination
97.5420°
Eccentricity
0.0009309
Mean motion
14.98408334 rev/d
Perigee alt
565.3 km
Apogee alt
578.3 km
Semi-major
6,950.0 km
B*
1.5034e-4
RAAN
309.3147°
Arg perigee
280.0498°
Mean anomaly
79.9675°
Rev number
11,200

§ Raw data

2024-110C1 60014U 24110C   26236.29396498  .00001738  00000+0  15034-3 0  99922 60014  97.5420 309.3147 0009309 280.0498  79.9675 14.98408334112000

JSON: /api/v1/satellites/60014 · /tle

For live sub-satellite position, see the globe view (requires WebGL).

§ Visibility from observer

Set your observer location to see the next 7 days of passes ≥ 10°. The values pass through the URL so the page stays shareable.

No JS? Fill the form by hand. The geolocation button needs JavaScript.